风云三号F星 (FENGYUN 3F)

导读

FENGYUN 3F(风云三号F星)是中国于2023年8月3日发射的第二代极轨气象卫星,运行于836公里高度的太阳同步轨道,降交点过赤道时间为上午10点左右。卫星共搭载10台先进探测载荷,包括升级后的中分辨率光谱成像仪、红外高光谱大气垂直探测仪等,所有载荷均工作正常。它可实现全球多光谱、三维定量大气观测,数据广泛应用于数值天气预报、气候监测、防灾减灾等领域,与组网卫星共同提升我国气象观测精度与全球服务能力。

基本信息
目录编号:
57490
目录名称:
FENGYUN 3F
国际标识:
2023-111A
轨道中心:
EARTH
卫星名称:
风云三号F星
卫星全名:
风云三号F星 (FENGYUN 3F)
卫星状态:
在轨 (已飞行1135 天)
发射日期:
2023-08-03 UTC
国别 :
中国 (CN)
星等 :
--
该卫星已列入 空间交会检测服务 Space Conjunction Data Service (SCDS) ,当前飞行风险评估等级: 无高风险
轨道信息
数据来源 国际轨道数据 AOE轨道数据
星历时间 2026-09-11T15:03:06+0800
7小时前
查看轨道信息
2026-09-07T00:00:00+0800
4天前
查看轨道信息
半长轴 7203.657km 7203.66km
偏心率 0.0001111 0.0000874
轨道倾角 98.676° 98.678°
近地点辐角 115.720° 116.102°
升交点赤经 322.666° 318.129°
平近点角 244.410° 4.165°
近地点 824.719km 824.893km
远地点 826.321km 826.153km
周期 101.412分钟 101.412分钟
每日圈数 14.199506 14.199498
详细信息
平衡模式:
三轴稳定
覆盖范围:
亚洲
运营商:
夏威夷科学技术博物馆
运营商所在国:
美国
制造商(研发单位):
上海航天技术研究院
制造商所在国:
中国
使用方式:
暂无
卫星简介
风云气象卫星系列(FENGYUN Meteorological Satellite)是中国于1977年开始研制的气象卫星系列,目前发射了风云一号、风云二号、风云三号、风云四号等卫星系列。其中,风云二号系列、风云四号系列为风云静止卫星,风云一号系列、风云三号系列为风云极轨卫星。该卫星仍在工作。
2D轨道图
3D轨道图
轨道高度分析图
轨道倾角分析图
轨道综合分析图
查看轨道综合分析图
交会数据列表
事件ID 空间交会对象 最接近时刻(TCA) 交会距离 交会风险概率(CRP) 交会风险指数(CRI) 操作
CDM_260912-080203-105605-749025
2026-09-12T
08:02:06+0000
1.171 km
极远距离
1.20984E-5 中风险 0.57
CDM_260912-162804-060805-749023
2026-09-12T
16:28:17+0000
1.651 km
极远距离
2.902417E-6 低风险 0.44
与全量物体交会距离演化趋势
与全量物体交会风险概率演化趋势